Location: Holyhead Bay
(53.3667°N, 4.6667°W)
Time: 18:21:06
(UTC+00:00)

Cosmos 2237 Rocket - Pass Details

Date: 24 November 2020
Orbit: 833 x 851 km, 71.0° (Epoch: 16 January)

Event Time Altitude Azimuth Distance (km) Brightness Sun altitude
Rises 17:41:25 0° 192° (SSW) 3,369 5.7 -13.0°
Reaches altitude 10° 17:43:53 10° 187° (S) 2,440 4.9 -13.4°
Maximum altitude 17:49:17 51° 113° (ESE) 1,041 2.4 -14.2°
Enters shadow 17:53:33 16° 43° (NE) 2,038 3.7 -14.8°
